DateTimeUTC,F1_A11,F1_S11,BsB_S11,BsG_S11,BsR_S11,BbsB_S11,BbsG_S11,BbsR_S11,BaB_A11,BaG_A11,BaR_A11,Tu_S11,T_S11,Uu_S11,U_S11,P_S11,T1_A11
2021-04-04T14:00:00Z,00000200,21000000,,,,,,,0000.33,0000.55,-000.04,15.6,22.9,,00.0,0661.7,30.9
2021-04-04T14:01:00Z,00000200,21000000,,,,,,,0000.85,0000.38,0000.71,15.7,22.9,,00.0,0661.7,30.9
2021-04-04T14:02:00Z,00000200,21000000,,,,,,,0000.88,0000.71,-000.02,15.7,22.9,,00.0,0661.7,30.9
2021-04-04T14:03:00Z,00000200,61000000,,,,,,,0001.62,0001.41,0001.17,15.7,22.9,,00.0,0661.7,30.9
2021-04-04T14:04:00Z,00000200,41000000,0003.96,0001.85,0001.29,0000.02,0000.27,0000.13,0001.78,0001.88,0001.16,16.1,22.9,,00.0,0662.6,30.9
2021-04-04T14:05:00Z,00000200,01000000,0003.75,0002.32,0001.28,0000.59,0000.24,0000.09,0001.94,0001.65,0001.55,16.2,22.9,,00.0,0662.6,30.9
2021-04-04T14:06:00Z,00000200,01000000,0003.84,0002.59,0001.43,0000.67,0000.32,-000.02,0001.68,0001.64,0001.18,16.2,22.9,,00.0,0662.6,30.9
2021-04-04T14:07:00Z,00000200,01000000,0004.37,0002.37,0001.39,0000.40,0000.44,0000.28,0001.69,0001.55,0000.82,16.2,22.9,,00.0,0662.7,30.9
2021-04-04T14:08:00Z,00000200,01000000,0002.77,0002.34,0001.39,0000.30,0000.20,0000.49,0001.77,0001.79,0001.30,16.2,22.9,,00.0,0662.7,30.9
2021-04-04T14:09:00Z,00000200,01000000,0003.20,0002.51,0001.64,0001.16,0000.26,0000.25,0002.04,0001.79,0001.30,16.2,22.9,,00.0,0662.7,30.9
2021-04-04T14:10:00Z,00000200,01000000,0003.81,0002.36,0001.37,0000.11,0000.38,0000.39,0002.00,0001.26,0001.27,16.2,22.9,,00.0,0662.7,30.9
2021-04-04T14:11:00Z,00000200,01000000,0002.97,0002.05,0001.54,0000.83,0000.46,0000.40,0001.31,0001.43,0000.83,16.2,22.9,,00.0,0662.6,30.8
2021-04-04T14:12:00Z,00000200,01000000,0003.28,0002.56,0001.37,0000.34,0000.38,0000.08,0001.65,0001.05,0001.17,16.1,22.8,,00.0,0662.6,30.8
2021-04-04T14:13:00Z,00000200,01000000,0003.87,0002.98,0001.50,0000.71,0000.47,0000.28,0007.31,0007.38,0005.53,16.1,22.8,,00.0,0662.6,30.8
2021-04-04T14:14:00Z,00000200,01000000,0005.61,0003.32,0001.88,0000.45,0000.55,0000.27,0022.98,0020.63,0016.56,16.2,22.8,,00.0,0662.6,30.8
2021-04-04T14:15:00Z,00000200,01000000,0004.20,0002.97,0001.74,0000.13,0000.46,0000.42,0007.09,0007.06,0005.74,16.2,22.9,,00.0,0662.7,30.9
2021-04-04T14:16:00Z,00000200,01000000,0003.45,0002.33,0001.48,0000.27,0000.43,0000.26,0001.46,0001.30,0001.10,16.3,22.9,,00.0,0662.7,30.9
2021-04-04T14:17:00Z,00000200,01000000,0003.99,0001.86,0001.35,0000.35,0000.28,0000.44,0001.25,0001.03,0000.86,16.3,22.9,,00.0,0662.7,30.9
2021-04-04T14:18:00Z,00000200,01000000,0003.49,0002.59,0001.23,0000.34,0000.44,0000.29,0001.09,0001.04,0000.79,16.4,22.9,,00.0,0662.7,30.9
2021-04-04T14:19:00Z,00000200,01000000,0003.20,0002.34,0001.53,0000.43,0000.38,0000.10,0001.96,0001.44,0001.20,16.4,22.9,,00.0,0662.7,30.9
2021-04-04T14:20:00Z,00000200,01000000,0003.74,0002.48,0001.30,0001.02,0000.12,0000.33,0000.98,0001.14,0000.52,16.3,22.9,,00.0,0662.7,30.8
2021-04-04T14:21:00Z,00000200,01000000,0003.59,0002.44,0001.49,0000.63,0000.23,0000.43,0001.30,0001.17,0001.36,16.3,22.9,,00.0,0662.7,30.8
2021-04-04T14:22:00Z,00000200,01000000,0003.02,0002.42,0001.50,0000.70,0000.37,0000.41,0001.55,0001.59,0001.03,16.2,22.9,,00.0,0662.7,30.8
2021-04-04T14:23:00Z,00000200,01000000,0003.98,0002.16,0001.10,0000.27,0000.36,0000.14,0001.49,0001.56,0001.03,16.2,22.9,,00.0,0662.8,30.8
2021-04-04T14:24:00Z,00000200,01000000,0003.64,0002.47,0001.57,0000.85,0000.27,0000.47,0002.27,0001.97,0001.63,16.2,22.9,,00.0,0662.8,30.8
2021-04-04T14:25:00Z,00000200,01000000,0003.29,0001.98,0001.21,0000.86,0000.44,0000.44,0002.07,0001.72,0001.34,16.1,22.9,,00.0,0662.8,30.8
2021-04-04T14:26:00Z,00000200,01000000,0004.08,0002.29,0001.30,0000.27,0000.23,0000.15,0003.53,0002.83,0002.18,16.1,22.8,,00.0,0662.8,30.8
2021-04-04T14:27:00Z,00000200,01000000,0007.65,0005.40,0003.45,0001.34,0001.22,0001.05,0045.07,0041.06,0031.85,16.0,22.8,,00.0,0662.8,30.8
2021-04-04T14:28:00Z,00000200,01000000,0011.59,0008.12,0005.22,0002.44,0001.70,0001.45,0117.45,0109.05,0086.97,16.1,22.8,,00.0,0662.8,30.8
2021-04-04T14:29:00Z,00000200,01000000,0008.27,0006.54,0003.99,0001.66,0001.24,0000.87,0076.54,0070.28,0055.87,16.1,22.8,,00.0,0662.8,30.8
2021-04-04T14:30:00Z,00000200,01000000,0008.75,0006.33,0003.99,0001.74,0001.18,0000.95,0077.82,0071.89,0056.65,16.2,22.8,,00.0,0662.8,30.8
2021-04-04T14:31:00Z,00000200,01000000,0009.23,0006.29,0003.80,0001.73,0001.50,0000.84,0079.96,0073.64,0058.83,16.3,22.9,,00.0,0662.8,30.9
2021-04-04T14:32:00Z,00000200,01000000,0005.42,0003.94,0002.77,0000.82,0000.85,0000.87,0033.32,0030.88,0024.06,16.4,22.9,,00.0,0662.8,30.9
2021-04-04T14:33:00Z,00000200,01000000,0004.45,0002.68,0001.55,0000.89,0000.48,0000.22,0010.05,0009.42,0008.02,16.4,23.0,,00.0,0662.8,30.9
2021-04-04T14:34:00Z,00000200,01000000,0004.13,0002.74,0001.74,0000.55,0000.53,0000.31,0003.73,0003.31,0002.32,16.5,23.0,,00.0,0662.8,30.9
2021-04-04T14:35:00Z,00000200,01000000,0003.41,0002.21,0001.13,0000.32,0000.14,0000.09,0001.92,0001.94,0002.18,16.5,23.1,,00.0,0662.8,30.9
2021-04-04T14:36:00Z,00000200,01000000,0002.93,0002.42,0001.32,0000.23,0000.62,0000.46,0001.44,0001.28,0000.61,16.5,23.1,,00.0,0662.7,30.9
2021-04-04T14:37:00Z,00000200,01000000,0003.76,0002.36,0001.46,0000.58,0000.15,0000.33,0002.27,0001.98,0001.58,16.5,23.0,,00.0,0662.8,30.9
2021-04-04T14:38:00Z,00000200,01000000,0003.69,0002.28,0001.44,0000.43,0000.62,0000.14,0002.23,0002.22,0001.62,16.4,23.0,,00.0,0662.7,30.9
2021-04-04T14:39:00Z,00000200,01000000,0003.70,0002.14,0001.27,0000.47,0000.55,0000.17,0002.40,0002.21,0001.84,16.4,23.0,,00.0,0662.7,30.8
2021-04-04T14:40:00Z,00000200,01000000,0004.18,0003.21,0001.76,0001.07,0000.67,0000.48,0012.52,0011.24,0008.46,16.3,23.0,,00.0,0662.7,30.8
2021-04-04T14:41:00Z,00000200,01000000,0010.73,0007.03,0004.43,0002.23,0001.74,0001.14,0086.31,0079.79,0063.25,16.3,23.0,,00.0,0662.7,30.8
2021-04-04T14:42:00Z,00000200,01000000,0014.91,0011.14,0006.88,0002.63,0002.30,0001.84,0156.77,0144.69,0115.53,16.2,22.9,,00.0,0662.7,30.8
2021-04-04T14:43:00Z,00000200,01000000,0009.00,0006.37,0003.82,0001.58,0001.15,0000.85,0082.39,0076.31,0060.49,16.2,22.9,,00.0,0662.7,30.8
2021-04-04T14:44:00Z,00000200,01000000,0006.11,0004.23,0002.86,0000.75,0000.82,0000.73,0036.42,0033.63,0027.30,16.3,22.9,,00.0,0662.7,30.8
2021-04-04T14:45:00Z,00000200,01000000,0006.29,0004.21,0002.64,0000.69,0000.92,0000.76,0039.63,0036.59,0028.79,16.3,23.0,,00.0,0662.7,30.9
2021-04-04T14:46:00Z,00000200,01000000,0007.45,0004.61,0002.92,0001.54,0000.96,0000.81,0046.10,0042.57,0033.76,16.4,23.0,,00.0,0662.8,30.9
2021-04-04T14:47:00Z,00000200,01000000,0009.37,0006.22,0004.32,0001.83,0001.31,0000.96,0073.63,0067.96,0054.15,16.5,23.0,,00.0,0662.7,30.9
2021-04-04T14:48:00Z,00000200,01000000,0006.69,0004.61,0003.00,0001.18,0000.96,0000.53,0044.59,0040.92,0032.43,16.6,23.1,,00.0,0662.7,30.9
2021-04-04T14:49:00Z,00000200,01000000,0015.59,0011.95,0007.44,0003.26,0002.52,0001.97,0160.78,0148.73,0118.32,16.6,23.1,,00.0,0662.8,30.9
2021-04-04T14:50:00Z,00000200,01000000,0012.98,0008.88,0005.77,0002.30,0001.92,0001.67,0126.75,0117.28,0094.35,16.6,23.1,,00.0,0662.7,30.9
2021-04-04T14:51:00Z,00000200,01000000,0008.49,0005.57,0003.34,0001.28,0001.24,0000.84,0067.41,0062.19,0049.76,16.6,23.1,,00.0,0662.7,30.9
2021-04-04T14:52:00Z,00000200,01000000,0004.91,0003.59,0002.27,0000.88,0000.65,0000.70,0027.34,0025.82,0020.77,16.5,23.1,,00.0,0662.7,30.9
2021-04-04T14:53:00Z,00000200,01000000,0004.38,0002.61,0001.45,0000.53,0000.30,0000.19,0007.89,0007.30,0005.51,16.5,23.1,,00.0,0662.7,30.9
2021-04-04T14:54:00Z,00000200,01000000,0003.54,0002.23,0001.51,0000.24,0000.62,0000.29,0004.41,0004.00,0002.86,16.4,23.1,,00.0,0662.7,30.8
2021-04-04T14:55:00Z,00000200,01000000,0003.76,0002.51,0001.30,0000.50,0000.19,0000.22,0001.54,0001.26,0001.29,16.4,23.1,,00.0,0662.7,30.8
2021-04-04T14:56:00Z,00000200,01000000,0004.14,0002.25,0001.35,0000.36,0000.45,0000.23,0001.91,0001.87,0001.89,16.3,23.0,,00.0,0662.7,30.8
2021-04-04T14:57:00Z,00000200,41000000,,,,,,,0002.51,0002.18,0001.27,16.4,23.1,,00.0,0662.8,30.8
2021-04-04T14:58:00Z,00000200,61000000,,,,,,,0000.89,0001.08,0000.88,16.1,23.1,,00.0,0661.8,30.8
2021-04-04T14:59:00Z,00000200,21000000,,,,,,,0000.54,0000.35,0000.36,16.1,23.2,,00.0,0661.8,30.8
